Wind_Speed
17 16 15 14 16 16 14 12 10 9 9 8 6 5 5 5 6 9 11 11 9 7 7 11 11 8 7 7 7 7 9 9 9 11 14 17 17 16 16 16 17 17
18 17 17 16 17 15 13 11 10 11 11 10 8 7 6 5 5 7 10 10 8 6 10 14 13 10 10 10 8 7 10 12 12 13 16 19 18 16 16 16 15 16
18 17 18 18 17 16 14 12 12 12 11 10 9 8 7 6 6 8 10 10 8 9 12 15 15 13 13 13 10 8 11 13 13 15 17 19 19 18 18 16 15 16
16 16 18 18 17 17 16 14 13 12 12 11 9 8 6 6 9 10 10 10 10 10 11 12 14 15 15 14 11 10 12 12 13 15 19 20 19 19 20 19 18 18
16 16 18 19 17 16 16 14 13 12 11 10 8 6 6 9 11 10 10 10 10 10 9 9 11 13 13 12 11 12 13 12 12 16 19 20 18 17 17 17 18 17
17 17 19 20 17 15 15 14 12 11 10 9 7 6 8 11 10 9 8 8 9 9 9 9 9 10 10 10 12 13 13 11 12 16 18 18 16 15 15 15 16 16
18 18 19 20 17 14 14 13 10 9 9 8 7 7 10 11 9 8 7 7 8 9 11 11 10 10 12 12 13 14 14 14 14 15 16 16 16 16 17 17 17 17
18 19 20 19 16 14 14 11 9 9 9 8 8 10 11 10 8 7 7 8 9 9 12 12 11 12 13 13 14 15 16 16 17 18 18 18 18 19 19 18 17 19
18 20 21 19 16 15 13 10 9 10 9 9 10 11 12 11 8 7 9 9 8 9 12 12 13 14 14 14 16 17 16 16 18 20 20 19 20 20 19 17 16 17
16 19 20 19 16 14 12 11 10 10 10 10 11 12 14 11 8 9 11 10 8 9 12 13 15 14 13 16 19 16 15 17 19 21 20 19 19 20 18 16 14 14
18 19 17 16 15 12 11 12 11 10 11 12 12 14 16 13 10 10 12 10 9 10 11 12 13 12 12 17 20 17 16 17 19 20 18 17 17 17 16 14 13 12
19 18 16 16 15 12 11 12 11 11 13 13 12 15 17 14 11 12 13 11 9 9 8 9 10 10 12 16 19 17 16 16 18 19 17 15 15 14 13 12 11 10
16 16 16 17 16 13 12 11 9 9 12 12 12 14 16 14 11 13 14 12 10 10 8 6 7 9 10 13 15 14 14 13 15 17 17 15 13 11 10 10 9 9
17 17 16 16 16 15 13 11 11 10 11 12 11 11 14 13 11 13 14 12 11 11 10 7 6 8 9 10 12 12 12 13 13 15 15 15 13 12 10 9 9 9
18 18 16 14 17 17 15 14 16 14 14 15 13 12 12 11 11 12 13 13 12 12 12 10 9 9 9 10 11 12 12 12 12 13 13 13 14 13 12 12 11 12
13 14 14 14 18 20 18 17 18 17 17 18 16 14 13 11 11 12 12 14 15 13 13 13 12 11 11 11 12 12 12 12 12 12 12 12 13 15 14 13 14 14
8 9 11 12 14 17 17 19 20 19 19 19 18 17 15 14 14 13 12 14 16 15 14 13 14 14 14 14 13 13 13 13 12 12 11 12 14 15 14 13 14 14
9 8 9 9 9 12 16 19 19 17 16 18 19 18 17 16 16 16 15 14 15 17 15 14 14 15 16 16 15 15 15 14 14 14 14 15 16 16 14 14 15 15
12 10 9 6 5 6 8 10 10 10 11 13 15 18 19 18 17 17 17 16 16 17 18 17 17 17 18 18 18 18 17 17 17 17 18 19 19 18 18 17 17 17
16 15 14 10 8 7 4 2 0 3 5 6 9 13 16 18 19 19 19 19 18 18 19 21 21 21 22 22 22 22 22 21 21 21 21 22 23 23 23 21 20 20
15 14 14 13 12 10 8 6 6 4 3 3 6 8 10 13 16 19 21 22 22 21 21 22 22 23 24 24 24 25 25 24 24 24 24 25 26 27 26 24 23 23
9 8 9 9 9 8 8 8 6 6 5 4 6 7 8 10 12 15 19 21 23 24 23 24 24 24 25 25 26 26 26 26 26 26 27 28 29 29 28 26 26 26
5 4 3 3 3 2 3 4 4 4 5 4 5 6 6 8 10 11 14 16 18 20 23 24 25 26 26 26 26 27 27 28 28 27 28 29 29 30 29 28 27 27
4 4 4 3 3 4 4 3 3 2 1 3 4 6 6 8 10 11 12 13 14 17 19 21 23 24 24 24 24 25 27 28 29 28 28 28 29 29 29 28 28 29
9 9 9 9 9 9 9 9 10 10 9 8 7 7 6 7 10 11 12 14 16 18 18 20 21 22 21 21 20 21 23 25 27 28 28 28 29 30 30 28 27 26
13 14 14 13 13 13 13 13 13 13 14 14 14 13 12 11 10 12 13 14 16 18 19 20 22 22 22 21 19 20 22 23 24 26 27 28 29 31 31 28 24 20
Wind_Direction
182 174 171 169 167 164 157 152 149 153 173 188 200 209 197 196 200 187 189 193 196 204 186 166 159 157 148 140 144 149 150 151 142 134 135 131 126 126 125 123 120 116
182 177 176 172 169 166 159 159 161 165 178 195 209 216 217 228 219 193 193 198 202 189 170 170 170 163 162 163 160 154 150 146 140 141 144 140 136 137 138 138 134 126
184 180 180 175 170 168 167 171 173 175 186 200 210 219 229 228 200 177 176 179 173 152 151 167 175 171 170 176 179 164 153 149 143 144 149 148 146 148 151 151 144 135
191 187 181 177 174 174 174 177 180 185 197 206 211 221 223 188 162 154 151 150 147 141 143 160 175 180 183 188 191 171 158 157 150 147 151 151 151 152 156 157 149 142
195 192 183 180 182 182 179 180 185 192 201 207 212 217 191 162 154 151 147 145 146 150 152 153 164 178 185 189 185 171 166 162 153 151 152 151 150 150 153 156 155 154
198 192 185 185 187 183 178 179 188 198 202 201 201 188 163 157 157 155 152 152 157 164 166 163 160 160 158 157 158 161 161 154 148 152 154 152 148 140 133 135 143 151
197 191 185 189 193 183 174 178 190 197 195 191 182 159 154 156 156 157 158 157 162 167 167 169 168 156 146 145 147 148 145 141 140 144 149 149 143 136 130 128 130 134
193 193 190 193 196 185 177 182 193 194 187 182 165 150 151 153 148 149 151 149 152 157 162 169 166 155 152 151 147 142 141 142 141 139 142 144 142 139 137 135 133 132
197 196 195 198 195 184 183 190 193 190 184 176 162 149 148 150 150 146 143 145 148 148 155 159 154 153 158 154 145 144 147 148 144 142 144 146 146 147 145 142 140 138
209 196 193 197 189 181 188 194 192 188 182 174 166 154 151 159 167 156 150 155 157 150 148 148 153 162 167 155 147 152 161 158 151 150 153 156 155 154 154 151 147 144
208 196 195 192 182 182 192 193 190 186 181 178 173 161 159 171 180 165 162 168 165 157 154 155 164 173 171 161 157 163 171 168 162 160 161 165 166 164 163 160 157 157
199 194 197 189 181 186 193 194 192 186 182 180 175 165 164 176 184 169 167 174 174 172 168 166 173 174 168 167 169 172 174 172 170 167 163 165 173 177 177 177 177 178
199 194 193 188 188 187 183 190 194 186 181 176 172 168 168 178 184 171 170 177 180 185 188 183 179 175 171 172 176 181 179 173 173 173 170 172 182 191 195 197 203 205
197 196 190 185 186 183 181 193 198 189 177 173 174 176 176 183 186 176 176 182 182 187 198 210 201 189 185 183 184 188 187 183 181 181 181 185 190 197 202 205 212 222
186 191 188 181 181 181 182 190 197 196 183 179 184 189 186 190 191 184 183 185 184 188 199 213 219 214 210 207 204 204 202 199 196 193 193 194 195 199 201 206 217 226
171 180 181 180 186 189 186 188 197 201 191 185 189 194 196 194 191 192 195 193 189 190 200 214 223 225 226 225 224 224 224 221 217 214 209 204 206 209 210 217 229 232
136 162 177 186 192 194 195 200 206 205 196 192 192 196 200 198 192 196 206 206 199 194 201 215 223 228 231 231 230 233 234 235 235 235 229 219 217 220 224 231 234 234
87 119 150 169 182 189 199 206 207 202 198 198 199 201 203 201 198 200 207 214 211 204 205 212 217 225 231 233 233 233 234 237 241 243 241 232 226 227 234 238 231 230
71 75 88 106 134 156 180 197 201 203 208 211 210 209 209 209 209 209 211 218 221 217 216 218 217 220 227 231 233 233 233 236 240 241 240 238 237 237 238 239 239 241
92 84 77 69 58 57 62 61 244 229 227 226 223 221 220 220 220 219 216 218 224 226 225 226 227 227 230 233 236 238 240 241 240 240 241 242 244 244 242 243 251 256
101 99 93 84 74 65 56 38 15 354 317 268 254 244 236 233 231 229 226 223 226 230 231 232 234 234 235 237 240 243 245 245 244 243 243 245 248 248 246 247 253 257
90 100 103 96 92 87 75 64 47 20 357 314 291 275 257 251 247 241 236 231 230 233 238 240 241 241 241 243 247 250 250 250 250 248 247 248 250 252 253 254 255 257
64 79 95 102 117 124 89 82 76 45 21 336 307 302 278 263 259 250 241 237 238 242 246 248 248 248 248 249 252 255 256 255 255 255 253 252 253 256 257 256 256 257
333 324 311 294 255 238 239 238 230 230 293 298 300 307 296 283 281 268 251 248 254 254 252 253 253 251 251 252 254 257 258 259 259 258 257 257 258 258 256 254 255 256
305 303 299 291 280 268 257 253 248 242 243 250 258 269 278 290 297 290 274 266 266 263 259 258 256 256 257 258 258 259 261 262 262 261 259 258 258 258 257 257 257 254
293 292 291 287 283 279 272 266 262 257 255 255 254 253 252 253 265 278 280 276 271 266 265 265 264 264 263 264 264 263 263 264 264 263 262 259 258 259 260 262 259 247
Height
1525 1526 1528 1530 1531 1532 1533 1534 1535 1535 1536 1536 1537 1538 1539 1540 1541 1542 1543 1544 1545 1546 1548 1550 1550 1551 1552 1553 1553 1554 1554 1555 1555 1556 1556 1557 1557 1558 1558 1558 1559 1559
1524 1525 1527 1528 1530 1532 1533 1534 1535 1535 1536 1536 1536 1537 1538 1539 1541 1542 1543 1544 1545 1546 1548 1549 1550 1551 1552 1553 1554 1555 1555 1556 1556 1557 1558 1558 1559 1559 1559 1560 1560 1561
1524 1525 1526 1527 1529 1531 1532 1533 1535 1535 1536 1536 1536 1537 1538 1539 1540 1541 1542 1543 1544 1545 1547 1549 1550 1551 1552 1553 1555 1556 1556 1557 1557 1558 1559 1559 1560 1560 1561 1561 1562 1563
1525 1526 1527 1528 1529 1530 1532 1533 1534 1535 1536 1536 1537 1537 1538 1538 1539 1540 1541 1543 1544 1546 1547 1549 1550 1551 1552 1553 1554 1556 1557 1557 1557 1558 1559 1559 1560 1561 1561 1562 1563 1564
1525 1526 1527 1528 1529 1530 1532 1533 1534 1535 1536 1536 1537 1537 1537 1538 1539 1540 1541 1543 1544 1546 1547 1549 1550 1551 1552 1553 1554 1555 1556 1557 1558 1558 1559 1559 1560 1561 1562 1563 1563 1564
1524 1526 1527 1529 1530 1531 1533 1534 1535 1535 1535 1536 1536 1537 1537 1538 1539 1540 1541 1543 1544 1545 1547 1548 1550 1551 1552 1552 1554 1555 1556 1557 1558 1558 1559 1560 1560 1561 1562 1563 1563 1564
1525 1526 1528 1530 1531 1533 1534 1535 1535 1535 1535 1536 1536 1537 1537 1538 1539 1541 1542 1543 1544 1545 1547 1548 1550 1551 1552 1553 1554 1555 1556 1557 1557 1558 1559 1560 1561 1562 1562 1563 1564 1564
1526 1528 1530 1531 1533 1534 1535 1535 1535 1535 1535 1536 1536 1536 1537 1539 1540 1541 1542 1543 1544 1545 1547 1548 1550 1551 1552 1554 1555 1556 1557 1557 1558 1558 1559 1560 1561 1562 1563 1564 1565 1565
1528 1530 1530 1532 1534 1535 1535 1535 1535 1535 1536 1536 1536 1537 1538 1539 1540 1541 1542 1543 1544 1545 1547 1548 1550 1551 1553 1554 1556 1557 1557 1558 1558 1559 1559 1560 1561 1562 1563 1564 1565 1566
1530 1531 1531 1533 1534 1535 1535 1536 1535 1536 1536 1536 1537 1537 1539 1540 1541 1542 1543 1544 1545 1546 1547 1548 1550 1552 1553 1555 1556 1558 1558 1559 1559 1560 1560 1561 1561 1562 1563 1564 1565 1566
1529 1532 1534 1534 1535 1535 1535 1535 1536 1536 1536 1536 1537 1538 1539 1540 1542 1542 1544 1545 1545 1546 1547 1548 1550 1552 1553 1555 1556 1558 1559 1560 1560 1560 1561 1561 1562 1563 1563 1564 1565 1566
1527 1531 1534 1534 1535 1535 1535 1535 1536 1536 1536 1537 1537 1538 1539 1541 1542 1542 1543 1545 1546 1546 1547 1549 1550 1552 1553 1554 1556 1557 1559 1560 1560 1561 1561 1562 1562 1563 1564 1564 1565 1566
1528 1531 1532 1533 1534 1535 1536 1536 1536 1537 1537 1537 1538 1539 1540 1541 1541 1542 1543 1545 1546 1547 1548 1549 1550 1552 1553 1555 1556 1557 1558 1559 1560 1561 1561 1562 1562 1562 1563 1564 1564 1565
1528 1530 1530 1532 1534 1535 1536 1537 1537 1538 1538 1538 1539 1539 1540 1541 1541 1542 1543 1544 1546 1547 1548 1549 1550 1552 1553 1555 1556 1557 1558 1559 1559 1560 1560 1561 1561 1562 1562 1562 1563 1563
1527 1529 1529 1530 1532 1533 1535 1536 1538 1538 1538 1538 1539 1539 1540 1541 1541 1542 1543 1544 1545 1546 1548 1549 1550 1551 1553 1554 1555 1556 1557 1558 1559 1559 1559 1560 1560 1559 1560 1560 1560 1561
1526 1527 1528 1529 1531 1533 1534 1535 1537 1538 1538 1539 1539 1539 1540 1540 1541 1542 1543 1544 1545 1546 1547 1548 1549 1551 1552 1553 1555 1556 1557 1557 1557 1558 1558 1558 1557 1557 1558 1558 1559 1559
1525 1526 1528 1530 1531 1532 1532 1533 1535 1537 1537 1538 1538 1539 1539 1539 1540 1541 1542 1544 1545 1546 1547 1548 1549 1550 1551 1552 1553 1554 1555 1555 1556 1556 1557 1556 1555 1555 1556 1557 1557 1558
1525 1526 1529 1531 1531 1532 1533 1534 1535 1536 1536 1537 1538 1538 1539 1539 1540 1541 1541 1543 1544 1545 1546 1547 1548 1549 1550 1551 1551 1552 1553 1553 1554 1554 1554 1554 1553 1553 1554 1555 1555 1556
1526 1528 1529 1531 1531 1532 1533 1534 1534 1534 1535 1536 1537 1537 1537 1538 1539 1540 1541 1542 1543 1544 1545 1546 1547 1548 1549 1549 1549 1550 1551 1551 1551 1552 1551 1551 1550 1551 1551 1552 1552 1553
1526 1528 1529 1531 1531 1531 1532 1533 1533 1533 1534 1535 1535 1535 1536 1536 1537 1539 1540 1541 1542 1542 1543 1544 1546 1546 1546 1547 1547 1548 1548 1548 1549 1549 1548 1548 1547 1548 1548 1549 1549 1550
1526 1526 1528 1529 1530 1531 1531 1532 1533 1533 1533 1533 1533 1534 1534 1534 1536 1537 1538 1539 1540 1541 1541 1542 1543 1544 1544 1544 1544 1545 1545 1546 1546 1546 1545 1545 1544 1544 1544 1546 1546 1546
1526 1527 1527 1528 1528 1529 1530 1530 1531 1531 1532 1533 1533 1533 1533 1533 1534 1535 1535 1536 1537 1538 1539 1539 1540 1541 1541 1541 1541 1541 1542 1542 1543 1543 1542 1541 1541 1540 1541 1541 1542 1543
1527 1527 1528 1528 1528 1528 1529 1529 1530 1530 1531 1531 1531 1532 1532 1532 1533 1533 1533 1534 1534 1535 1536 1536 1537 1537 1538 1538 1538 1538 1538 1538 1538 1539 1538 1538 1537 1537 1537 1537 1538 1539
1527 1527 1527 1528 1528 1528 1528 1529 1529 1530 1530 1530 1530 1530 1530 1530 1530 1531 1531 1531 1531 1532 1532 1533 1533 1533 1534 1534 1535 1535 1534 1534 1534 1534 1534 1534 1534 1533 1533 1534 1534 1535
1526 1526 1526 1526 1526 1527 1527 1527 1528 1528 1529 1529 1529 1529 1529 1529 1529 1529 1530 1530 1530 1530 1530 1530 1530 1530 1530 1531 1531 1531 1530 1530 1530 1530 1529 1530 1530 1529 1529 1530 1530 1531
1525 1524 1524 1524 1524 1524 1524 1525 1525 1526 1527 1527 1527 1528 1528 1528 1528 1528 1528 1528 1528 1528 1528 1527 1527 1527 1527 1527 1527 1527 1527 1526 1526 1526 1525 1526 1526 1525 1525 1526 1527 1527